,,Stat6,,Stat2,,Stat8,,Stat9,,Stat10,,Wind1,,Wind1,
time,status,PA1M_AVG,status,PR1M_SUM,status,RH1M_AVG,status,SR1M_AVG,status,TA1M_AVG,status,W1dAve1m,status,W1sAve1m,
2005-05-08, 00:00:00,VALID,918.563,VALID,0,VALID,97.3668,VALID,0.0169808,VALID,19.2546,VALID,357,VALID,0.716264,
2005-05-08, 00:01:00,VALID,918.549,VALID,0,VALID,97.5372,VALID,0,VALID,19.2427,VALID,17,VALID,0.883371,
2005-05-08, 00:02:00,VALID,918.523,VALID,0,VALID,97.5575,VALID,0,VALID,19.2327,VALID,12,VALID,1.54809,
2005-05-08, 00:03:00,VALID,918.498,VALID,0,VALID,97.321,VALID,0.0169808,VALID,19.239,VALID,16,VALID,1.68322,
2005-05-08, 00:04:00,VALID,918.483,VALID,0,VALID,96.9675,VALID,0.0169808,VALID,19.2874,VALID,22,VALID,1.32558,
2005-05-08, 00:05:00,VALID,918.478,VALID,0,VALID,96.6903,VALID,0,VALID,19.3194,VALID,14,VALID,1.04397,
2005-05-08, 00:06:00,VALID,918.462,VALID,0,VALID,96.3635,VALID,0.0169808,VALID,19.3321,VALID,334,VALID,0.52524,
2005-05-08, 00:07:00,VALID,918.449,VALID,0,VALID,95.9807,VALID,0.101885,VALID,19.3778,VALID,306,VALID,0.834077,
2005-05-08, 00:08:00,VALID,918.42,VALID,0,VALID,95.6806,VALID,0.0509425,VALID,19.4195,VALID,324,VALID,0.634028,
2005-05-08, 00:09:00,VALID,918.4,VALID,0,VALID,95.6514,VALID,0.0679233,VALID,19.4491,VALID,352,VALID,0.683771,
2005-05-08, 00:10:00,VALID,918.38,VALID,0,VALID,95.6666,VALID,0.0169808,VALID,19.4814,VALID,6,VALID,0.685976,
2005-05-08, 00:11:00,VALID,918.378,VALID,0,VALID,95.5242,VALID,0.0169808,VALID,19.4913,VALID,7,VALID,0.750545,
2005-05-08, 00:12:00,VALID,918.369,VALID,0,VALID,95.3589,VALID,0,VALID,19.4747,VALID,20,VALID,0.865767,
2005-05-08, 00:13:00,VALID,918.372,VALID,0,VALID,95.4238,VALID,0.0169808,VALID,19.4906,VALID,17,VALID,0.731898,
2005-05-08, 00:14:00,VALID,918.347,VALID,0,VALID,95.4072,VALID,0.0169808,VALID,19.4943,VALID,18,VALID,1.14463,
2005-05-08, 00:15:00,VALID,918.328,VALID,0,VALID,94.9138,VALID,0,VALID,19.4913,VALID,22,VALID,1.57645,
2005-05-08, 00:16:00,VALID,918.317,VALID,0,VALID,94.9672,VALID,0,VALID,19.5263,VALID,25,VALID,1.08114,
2005-05-08, 00:17:00,VALID,918.3,VALID,0,VALID,95.0003,VALID,0.0169808,VALID,19.5425,VALID,20,VALID,0.924237,
2005-05-08, 00:18:00,VALID,918.295,VALID,0,VALID,94.9978,VALID,0.0339617,VALID,19.5455,VALID,28,VALID,1.01934,
2005-05-08, 00:19:00,VALID,918.291,VALID,0,VALID,95.1135,VALID,0.0169808,VALID,19.536,VALID,5,VALID,0.914621,
2005-05-08, 00:20:00,VALID,918.3,VALID,0,VALID,95.0461,VALID,0.0509425,VALID,19.5293,VALID,1,VALID,0.938453,
2005-05-08, 00:21:00,VALID,918.279,VALID,0,VALID,94.9088,VALID,-0.0509425,VALID,19.5313,VALID,3,VALID,0.447461,
2005-05-08, 00:22:00,VALID,918.257,VALID,0,VALID,94.985,VALID,-0.0679233,VALID,19.5246,VALID,21,VALID,0.706101,
2005-05-08, 00:23:00,VALID,918.26,VALID,0,VALID,94.8935,VALID,-0.0849042,VALID,19.5214,VALID,25,VALID,1.19113,
2005-05-08, 00:24:00,VALID,918.244,VALID,0,VALID,94.9062,VALID,-0.0679233,VALID,19.5308,VALID,16,VALID,0.936228,
2005-05-08, 00:25:00,VALID,918.221,VALID,0,VALID,94.8007,VALID,-0.0679233,VALID,19.5437,VALID,14,VALID,1.1941,
2005-05-08, 00:26:00,VALID,918.197,VALID,0,VALID,94.5578,VALID,-0.0679233,VALID,19.5504,VALID,12,VALID,1.64615,
2005-05-08, 00:27:00,VALID,918.178,VALID,0,VALID,94.2666,VALID,-0.0509425,VALID,19.5889,VALID,4,VALID,1.06886,
2005-05-08, 00:28:00,VALID,918.159,VALID,0,VALID,93.9449,VALID,-0.0679233,VALID,19.5984,VALID,7,VALID,0.883358,
2005-05-08, 00:29:00,VALID,918.134,VALID,0,VALID,93.9372,VALID,-0.0679233,VALID,19.6443,VALID,25,VALID,0.560404,
2005-05-08, 00:30:00,VALID,918.128,VALID,0,VALID,94.0949,VALID,-0.0849042,VALID,19.6503,VALID,24,VALID,0.633194,
2005-05-08, 00:31:00,VALID,918.126,VALID,0,VALID,94.0771,VALID,-0.0339617,VALID,19.6406,VALID,24,VALID,0.547461,
2005-05-08, 00:32:00,VALID,918.105,VALID,0,VALID,93.9169,VALID,-0.0679233,VALID,19.6339,VALID,24,VALID,0.490552,
2005-05-08, 00:33:00,VALID,918.101,VALID,0,VALID,93.852,VALID,-0.0849042,VALID,19.6337,VALID,24,VALID,0.39117,
2005-05-08, 00:34:00,VALID,918.094,VALID,0,VALID,93.7376,VALID,-0.0849042,VALID,19.6438,VALID,24,VALID,0.424543,
2005-05-08, 00:35:00,VALID,918.083,VALID,0,VALID,93.7503,VALID,-0.0509425,VALID,19.6406,VALID,26,VALID,0.403888,
2005-05-08, 00:36:00,VALID,918.071,VALID,0,VALID,93.7084,VALID,-0.0849042,VALID,19.6309,VALID,32,VALID,0.514717,
2005-05-08, 00:37:00,VALID,918.05,VALID,0,VALID,93.7567,VALID,-0.0679233,VALID,19.6148,VALID,84,VALID,0.764881,
2005-05-08, 00:38:00,VALID,918.038,VALID,0,VALID,94.1178,VALID,-0.0339617,VALID,19.6081,VALID,106,VALID,0.852108,
2005-05-08, 00:39:00,VALID,918.04,VALID,0,VALID,94.4967,VALID,-0.0849042,VALID,19.6026,VALID,111,VALID,0.78125,
2005-05-08, 00:40:00,VALID,918.043,VALID,0,VALID,95.2228,VALID,-0.0509425,VALID,19.576,VALID,113,VALID,0.641158,
2005-05-08, 00:41:00,VALID,918.03,VALID,0,VALID,95.8548,VALID,-0.0509425,VALID,19.5532,VALID,113,VALID,0.578307,
2005-05-08, 00:42:00,VALID,918.044,VALID,0,VALID,96.3851,VALID,-0.0509425,VALID,19.5017,VALID,114,VALID,0.680259,
2005-05-08, 00:43:00,VALID,918.036,VALID,0,VALID,96.5987,VALID,-0.0509425,VALID,19.4568,VALID,116,VALID,0.810683,
2005-05-08, 00:44:00,VALID,918.026,VALID,0,VALID,96.5555,VALID,-0.0509425,VALID,19.3954,VALID,114,VALID,0.920277,
2005-05-08, 00:45:00,VALID,917.996,VALID,0,VALID,96.5682,VALID,-0.0509425,VALID,19.3534,VALID,104,VALID,1.03034,
2005-05-08, 00:46:00,VALID,917.966,VALID,0,VALID,96.628,VALID,-0.0849042,VALID,19.3373,VALID,101,VALID,0.982887,
2005-05-08, 00:47:00,VALID,917.948,VALID,0,VALID,96.8403,VALID,-0.101885,VALID,19.3338,VALID,99,VALID,0.773611,
2005-05-08, 00:48:00,VALID,917.935,VALID,0,VALID,96.9014,VALID,-0.0339617,VALID,19.3375,VALID,97,VALID,0.803757,
2005-05-08, 00:49:00,VALID,917.912,VALID,0,VALID,96.8479,VALID,-0.0509425,VALID,19.3077,VALID,102,VALID,0.782227,
2005-05-08, 00:50:00,VALID,917.874,VALID,0,VALID,96.881,VALID,-0.0849042,VALID,19.298,VALID,105,VALID,0.847656,
2005-05-08, 00:51:00,VALID,917.862,VALID,0,VALID,96.9268,VALID,0.0339617,VALID,19.2973,VALID,114,VALID,1.02793,
2005-05-08, 00:52:00,VALID,917.834,VALID,0,VALID,97.1595,VALID,0.0169808,VALID,19.2936,VALID,114,VALID,0.548692,
2005-05-08, 00:53:00,VALID,917.805,VALID,0,VALID,97.3871,VALID,0.0339617,VALID,19.2705,VALID,114,VALID,0.488009,
2005-05-08, 00:54:00,VALID,917.783,VALID,0,VALID,97.6567,VALID,0.0679233,VALID,19.277,VALID,114,VALID,0.594131,
2005-05-08, 00:55:00,VALID,917.765,VALID,0,VALID,97.8436,VALID,0.0169808,VALID,19.2576,VALID,114,VALID,0.577524,
2005-05-08, 00:56:00,VALID,917.748,VALID,0,VALID,98.0382,VALID,0.0169808,VALID,19.2348,VALID,110,VALID,0.536156,
2005-05-08, 00:57:00,VALID,917.748,VALID,0,VALID,98.2683,VALID,0,VALID,19.2256,VALID,110,VALID,0.522727,
2005-05-08, 00:58:00,VALID,917.767,VALID,0,VALID,98.3828,VALID,0.0169808,VALID,19.2226,VALID,100,VALID,0.659446,
2005-05-08, 00:59:00,VALID,917.772,VALID,0,VALID,98.5341,VALID,0.0169808,VALID,19.2002,VALID,89,VALID,0.663352,
2005-05-08, 01:00:00,VALID,917.778,VALID,0,VALID,98.6371,VALID,0.0169808,VALID,19.1875,VALID,58,VALID,0.7234,
2005-05-08, 01:01:00,VALID,917.776,VALID,0,VALID,98.5481,VALID,0.0339617,VALID,19.155,VALID,19,VALID,0.717416,
2005-05-08, 01:02:00,VALID,917.756,VALID,0,VALID,98.4489,VALID,0.0169808,VALID,19.1389,VALID,19,VALID,0.438953,
2005-05-08, 01:03:00,VALID,917.753,VALID,0,VALID,98.3802,VALID,0.0169808,VALID,19.1356,VALID,19,VALID,0.31392,
2005-05-08, 01:04:00,VALID,917.751,VALID,0,VALID,98.3777,VALID,0.0339617,VALID,19.1356,VALID,15,VALID,0.478087,
2005-05-08, 01:05:00,VALID,917.746,VALID,0,VALID,98.3027,VALID,0.0169808,VALID,19.1225,VALID,5,VALID,0.291295,
2005-05-08, 01:06:00,VALID,917.727,VALID,0,VALID,98.4629,VALID,-0.0849042,VALID,19.1336,VALID,5,VALID,0.00878906,
2005-05-08, 01:07:00,VALID,917.7,VALID,0,VALID,98.6409,VALID,-0.101885,VALID,19.1435,VALID,5,VALID,0.311012,
2005-05-08, 01:08:00,VALID,917.668,VALID,0,VALID,98.5265,VALID,-0.0849042,VALID,19.1239,VALID,5,VALID,0.186012,
2005-05-08, 01:09:00,VALID,917.629,VALID,0,VALID,98.4972,VALID,-0.118866,VALID,19.1306,VALID,5,VALID,0,
2005-05-08, 01:10:00,VALID,917.612,VALID,0,VALID,98.6803,VALID,-0.101885,VALID,19.1398,VALID,5,VALID,0.194247,
2005-05-08, 01:11:00,VALID,917.609,VALID,0,VALID,98.7617,VALID,-0.118866,VALID,19.1567,VALID,9,VALID,0.498285,
2005-05-08, 01:12:00,VALID,917.608,VALID,0,VALID,98.9168,VALID,-0.101885,VALID,19.1758,VALID,9,VALID,0.577947,
2005-05-08, 01:13:00,VALID,917.614,VALID,0,VALID,98.983,VALID,-0.118866,VALID,19.1793,VALID,9,VALID,0.643973,
2005-05-08, 01:14:00,VALID,917.597,VALID,0,VALID,98.7236,VALID,-0.101885,VALID,19.1694,VALID,8,VALID,0.545541,
2005-05-08, 01:15:00,VALID,917.599,VALID,0,VALID,98.6918,VALID,-0.101885,VALID,19.1433,VALID,1,VALID,0.520486,
2005-05-08, 01:16:00,VALID,917.578,VALID,0,VALID,98.7884,VALID,-0.101885,VALID,19.1338,VALID,1,VALID,0.563802,
2005-05-08, 01:17:00,VALID,917.575,VALID,0,VALID,98.9703,VALID,-0.101885,VALID,19.1408,VALID,1,VALID,0.360417,
2005-05-08, 01:18:00,VALID,917.564,VALID,0,VALID,98.9219,VALID,-0.101885,VALID,19.1403,VALID,1,VALID,0.391026,
2005-05-08, 01:19:00,VALID,917.547,VALID,0,VALID,98.983,VALID,-0.101885,VALID,19.1338,VALID,1,VALID,0.463356,
2005-05-08, 01:20:00,VALID,917.533,VALID,0,VALID,99.1012,VALID,-0.0849042,VALID,19.1627,VALID,1,VALID,0.334449,
2005-05-08, 01:21:00,VALID,917.52,VALID,0,VALID,99.1826,VALID,-0.0339617,VALID,19.1778,VALID,1,VALID,0.328683,
2005-05-08, 01:22:00,VALID,917.517,VALID,0,VALID,99.0427,VALID,-0.0339617,VALID,19.1719,VALID,1,VALID,0.508003,
2005-05-08, 01:23:00,VALID,917.519,VALID,0,VALID,98.8723,VALID,-0.0339617,VALID,19.1354,VALID,1,VALID,0.570313,
2005-05-08, 01:24:00,VALID,917.504,VALID,0,VALID,98.9359,VALID,0,VALID,19.1428,VALID,358,VALID,0.611374,
2005-05-08, 01:25:00,VALID,917.485,VALID,0,VALID,98.9385,VALID,0,VALID,19.1326,VALID,353,VALID,0.268169,
2005-05-08, 01:26:00,VALID,917.476,VALID,0,VALID,98.8622,VALID,0.0169808,VALID,19.1329,VALID,353,VALID,0.330664,
2005-05-08, 01:27:00,VALID,917.468,VALID,0,VALID,98.9575,VALID,-0.0169808,VALID,19.146,VALID,353,VALID,0.298735,
2005-05-08, 01:28:00,VALID,917.468,VALID,0,VALID,99.0084,VALID,-0.0169808,VALID,19.149,VALID,353,VALID,0.33817,
2005-05-08, 01:29:00,VALID,917.486,VALID,0,VALID,99.0084,VALID,0,VALID,19.1615,VALID,353,VALID,0.343023,
2005-05-08, 01:30:00,VALID,917.506,VALID,0,VALID,98.7693,VALID,-0.0169808,VALID,19.1843,VALID,353,VALID,0.267485,
2005-05-08, 01:31:00,VALID,917.5,VALID,0,VALID,98.4667,VALID,0.0169808,VALID,19.1776,VALID,353,VALID,0.48712,
2005-05-08, 01:32:00,VALID,917.496,VALID,0,VALID,98.1056,VALID,-0.0169808,VALID,19.2039,VALID,357,VALID,0.541295,
2005-05-08, 01:33:00,VALID,917.478,VALID,0,VALID,98.2225,VALID,0,VALID,19.2422,VALID,23,VALID,0.871466,
2005-05-08, 01:34:00,VALID,917.471,VALID,0,VALID,98.0458,VALID,0,VALID,19.2586,VALID,35,VALID,1.1694,
2005-05-08, 01:35:00,VALID,917.461,VALID,0,VALID,97.9072,VALID,0,VALID,19.2777,VALID,29,VALID,1.25438,
2005-05-08, 01:36:00,VALID,917.442,VALID,0,VALID,97.7177,VALID,0,VALID,19.2876,VALID,21,VALID,1.30793,
2005-05-08, 01:37:00,VALID,917.448,VALID,0,VALID,97.5181,VALID,-0.0169808,VALID,19.2839,VALID,14,VALID,1.5625,
2005-05-08, 01:38:00,VALID,917.469,VALID,0,VALID,97.5486,VALID,0,VALID,19.3038,VALID,8,VALID,1.09524,
2005-05-08, 01:39:00,VALID,917.465,VALID,0,VALID,97.6185,VALID,0,VALID,19.3038,VALID,3,VALID,0.369855,
2005-05-08, 01:40:00,VALID,917.448,VALID,0,VALID,97.6669,VALID,0,VALID,19.2911,VALID,3,VALID,0.341264,
2005-05-08, 01:41:00,VALID,917.465,VALID,0,VALID,97.7012,VALID,0,VALID,19.2881,VALID,5,VALID,0.386161,
2005-05-08, 01:42:00,VALID,917.453,VALID,0,VALID,97.8156,VALID,-0.0169808,VALID,19.2712,VALID,5,VALID,0.346799,
2005-05-08, 01:43:00,VALID,917.45,VALID,0,VALID,97.9695,VALID,-0.0339617,VALID,19.2782,VALID,5,VALID,0.356944,
2005-05-08, 01:44:00,VALID,917.453,VALID,0,VALID,98.1208,VALID,0,VALID,19.2779,VALID,5,VALID,0.417333,
2005-05-08, 01:45:00,VALID,917.446,VALID,0,VALID,98.0878,VALID,0.0169808,VALID,19.2842,VALID,20,VALID,0.602121,
2005-05-08, 01:46:00,VALID,917.447,VALID,0,VALID,97.9059,VALID,-0.0169808,VALID,19.2879,VALID,23,VALID,0.701527,
2005-05-08, 01:47:00,VALID,917.435,VALID,0,VALID,98.1119,VALID,0,VALID,19.2936,VALID,23,VALID,1.04278,
2005-05-08, 01:48:00,VALID,917.435,VALID,0,VALID,98.0153,VALID,0,VALID,19.3164,VALID,17,VALID,1.08509,
2005-05-08, 01:49:00,VALID,917.439,VALID,0,VALID,97.9161,VALID,-0.0169808,VALID,19.3294,VALID,19,VALID,1.01326,
2005-05-08, 01:50:00,VALID,917.447,VALID,0,VALID,97.7915,VALID,-0.0339617,VALID,19.3328,VALID,329,VALID,0.715116,
2005-05-08, 01:51:00,VALID,917.419,VALID,0,VALID,97.616,VALID,0,VALID,19.3296,VALID,295,VALID,0.554155,
2005-05-08, 01:52:00,VALID,917.405,VALID,0,VALID,96.1308,VALID,0,VALID,19.352,VALID,3,VALID,0.741257,
2005-05-08, 01:53:00,VALID,917.403,VALID,0,VALID,96.1791,VALID,0,VALID,19.4558,VALID,331,VALID,0.418786,
2005-05-08, 01:54:00,VALID,917.387,VALID,0,VALID,96.2668,VALID,-0.0169808,VALID,19.5003,VALID,330,VALID,0.400436,
2005-05-08, 01:55:00,VALID,917.369,VALID,0,VALID,96.5758,VALID,0.0169808,VALID,19.5328,VALID,331,VALID,0.0825893,
2005-05-08, 01:56:00,VALID,917.362,VALID,0,VALID,96.7475,VALID,-0.0169808,VALID,19.5358,VALID,331,VALID,0.0988898,
2005-05-08, 01:57:00,VALID,917.352,VALID,0,VALID,96.9789,VALID,-0.0169808,VALID,19.5457,VALID,346,VALID,0.335136,
2005-05-08, 01:58:00,VALID,917.351,VALID,0,VALID,97.0654,VALID,0,VALID,19.5626,VALID,9,VALID,0.212109,
2005-05-08, 01:59:00,VALID,917.363,VALID,0,VALID,97.2282,VALID,-0.0169808,VALID,19.536,VALID,9,VALID,0.00266335,
2005-05-08, 02:00:00,VALID,917.361,VALID,0,VALID,97.4253,VALID,0,VALID,19.5393,VALID,9,VALID,0.383168,
2005-05-08, 02:01:00,VALID,917.36,VALID,0,VALID,97.4799,VALID,-0.0169808,VALID,19.5427,VALID,9,VALID,0.107329,
2005-05-08, 02:02:00,VALID,917.329,VALID,0,VALID,97.5181,VALID,0,VALID,19.5427,VALID,9,VALID,0.253374,
2005-05-08, 02:03:00,VALID,917.304,VALID,0,VALID,97.3172,VALID,0,VALID,19.5328,VALID,21,VALID,0.736919,
2005-05-08, 02:04:00,VALID,917.279,VALID,0,VALID,97.0311,VALID,0,VALID,19.5234,VALID,24,VALID,0.672852,
2005-05-08, 02:05:00,VALID,917.275,VALID,0,VALID,96.8429,VALID,0,VALID,19.5137,VALID,23,VALID,0.11109,
2005-05-08, 02:06:00,VALID,917.27,VALID,0,VALID,97.2332,VALID,-0.0339617,VALID,19.507,VALID,354,VALID,0.238021,
2005-05-08, 02:07:00,VALID,917.281,VALID,0,VALID,97.2765,VALID,-0.0339617,VALID,19.4903,VALID,353,VALID,0.0556891,
2005-05-08, 02:08:00,VALID,917.31,VALID,0,VALID,96.9726,VALID,-0.0339617,VALID,19.4844,VALID,353,VALID,0.388808,
2005-05-08, 02:09:00,VALID,917.334,VALID,0,VALID,97.5092,VALID,0,VALID,19.5097,VALID,357,VALID,0.534766,
2005-05-08, 02:10:00,VALID,917.362,VALID,0,VALID,97.5918,VALID,0,VALID,19.5199,VALID,7,VALID,0.412791,
2005-05-08, 02:11:00,VALID,917.373,VALID,0,VALID,97.6058,VALID,-0.0339617,VALID,19.5102,VALID,7,VALID,0.115412,
2005-05-08, 02:12:00,VALID,917.382,VALID,0,VALID,97.5817,VALID,-0.0509425,VALID,19.5067,VALID,7,VALID,0.178089,
2005-05-08, 02:13:00,VALID,917.395,VALID,0,VALID,97.4062,VALID,-0.0169808,VALID,19.5067,VALID,7,VALID,0.153392,
2005-05-08, 02:14:00,VALID,917.369,VALID,0,VALID,97.4202,VALID,-0.0509425,VALID,19.5199,VALID,7,VALID,0.369792,
2005-05-08, 02:15:00,VALID,917.364,VALID,0,VALID,97.3464,VALID,0,VALID,19.5321,VALID,6,VALID,0.341442,
2005-05-08, 02:16:00,VALID,917.367,VALID,0,VALID,97.2701,VALID,0,VALID,19.542,VALID,2,VALID,0.295015,
2005-05-08, 02:17:00,VALID,917.373,VALID,0,VALID,96.8429,VALID,-0.0169808,VALID,19.5547,VALID,2,VALID,0.0303199,
2005-05-08, 02:18:00,VALID,917.381,VALID,0,VALID,96.7373,VALID,0,VALID,19.5708,VALID,2,VALID,0,
2005-05-08, 02:19:00,VALID,917.387,VALID,0,VALID,96.9598,VALID,-0.0339617,VALID,19.581,VALID,2,VALID,0.0451172,
2005-05-08, 02:20:00,VALID,917.415,VALID,0,VALID,96.5606,VALID,0,VALID,19.5875,VALID,2,VALID,0.300781,
2005-05-08, 02:21:00,VALID,917.415,VALID,0,VALID,95.5903,VALID,-0.0339617,VALID,19.5939,VALID,323,VALID,0.632068,
2005-05-08, 02:22:00,VALID,917.427,VALID,0,VALID,95.8472,VALID,0,VALID,19.6424,VALID,322,VALID,0.345982,
2005-05-08, 02:23:00,VALID,917.422,VALID,0,VALID,96.0201,VALID,-0.0169808,VALID,19.6587,VALID,345,VALID,0.55248,
2005-05-08, 02:24:00,VALID,917.417,VALID,0,VALID,95.8968,VALID,-0.0339617,VALID,19.6717,VALID,355,VALID,1.02653,
2005-05-08, 02:25:00,VALID,917.396,VALID,0,VALID,95.7595,VALID,0,VALID,19.6843,VALID,5,VALID,0.830357,
2005-05-08, 02:26:00,VALID,917.386,VALID,0,VALID,95.3805,VALID,0,VALID,19.6617,VALID,8,VALID,0.945685,
2005-05-08, 02:27:00,VALID,917.368,VALID,0,VALID,95.7099,VALID,0,VALID,19.6585,VALID,353,VALID,0.796026,
2005-05-08, 02:28:00,VALID,917.35,VALID,0,VALID,95.5713,VALID,0,VALID,19.6384,VALID,352,VALID,0.909702,
2005-05-08, 02:29:00,VALID,917.344,VALID,0,VALID,95.6933,VALID,0,VALID,19.6294,VALID,351,VALID,0.703307,
2005-05-08, 02:30:00,VALID,917.338,VALID,0,VALID,95.5611,VALID,0,VALID,19.6232,VALID,315,VALID,0.511242,
2005-05-08, 02:31:00,VALID,917.342,VALID,0,VALID,96.1943,VALID,0,VALID,19.626,VALID,317,VALID,0.546512,
2005-05-08, 02:32:00,VALID,917.336,VALID,0,VALID,96.7742,VALID,0,VALID,19.6034,VALID,334,VALID,0.587843,
2005-05-08, 02:33:00,VALID,917.313,VALID,0,VALID,97.0311,VALID,-0.0169808,VALID,19.5616,VALID,357,VALID,0.867733,
2005-05-08, 02:34:00,VALID,917.309,VALID,0,VALID,97.2828,VALID,-0.0169808,VALID,19.535,VALID,344,VALID,0.476953,
2005-05-08, 02:35:00,VALID,917.296,VALID,0,VALID,97.5753,VALID,-0.0169808,VALID,19.5229,VALID,334,VALID,0.45277,
2005-05-08, 02:36:00,VALID,917.293,VALID,0,VALID,97.4596,VALID,-0.0339617,VALID,19.5,VALID,344,VALID,1.13095,
2005-05-08, 02:37:00,VALID,917.296,VALID,0,VALID,97.2536,VALID,0,VALID,19.4774,VALID,356,VALID,1.13512,
2005-05-08, 02:38:00,VALID,917.31,VALID,0,VALID,97.251,VALID,0,VALID,19.4744,VALID,348,VALID,0.8456,
2005-05-08, 02:39:00,VALID,917.313,VALID,0,VALID,97.246,VALID,0,VALID,19.4583,VALID,343,VALID,0.682292,
2005-05-08, 02:40:00,VALID,917.32,VALID,0,VALID,97.3426,VALID,-0.0169808,VALID,19.4643,VALID,351,VALID,0.645089,
2005-05-08, 02:41:00,VALID,917.331,VALID,0,VALID,97.7292,VALID,0,VALID,19.4841,VALID,346,VALID,0.820313,
2005-05-08, 02:42:00,VALID,917.347,VALID,0,VALID,97.4481,VALID,-0.0169808,VALID,19.4379,VALID,354,VALID,1.24439,
2005-05-08, 02:43:00,VALID,917.37,VALID,0,VALID,97.0883,VALID,-0.0339617,VALID,19.4354,VALID,342,VALID,1.00941,
2005-05-08, 02:44:00,VALID,917.399,VALID,0,VALID,97.1989,VALID,0,VALID,19.4481,VALID,336,VALID,0.460379,
2005-05-08, 02:45:00,VALID,917.408,VALID,0,VALID,97.56,VALID,0,VALID,19.4508,VALID,303,VALID,0.568452,
2005-05-08, 02:46:00,VALID,917.41,VALID,0,VALID,97.8004,VALID,0,VALID,19.4573,VALID,312,VALID,0.522195,
2005-05-08, 02:47:00,VALID,917.406,VALID,0,VALID,98.0165,VALID,0,VALID,19.4605,VALID,343,VALID,0.917361,
2005-05-08, 02:48:00,VALID,917.381,VALID,0,VALID,97.4507,VALID,-0.0169808,VALID,19.4096,VALID,1,VALID,1.55041,
2005-05-08, 02:49:00,VALID,917.37,VALID,0,VALID,97.4024,VALID,-0.0169808,VALID,19.4034,VALID,16,VALID,1.30895,
2005-05-08, 02:50:00,VALID,917.375,VALID,0,VALID,97.0374,VALID,0,VALID,19.3969,VALID,333,VALID,1.56421,
2005-05-08, 02:51:00,VALID,917.371,VALID,0,VALID,96.9738,VALID,0,VALID,19.4163,VALID,294,VALID,0.62686,
2005-05-08, 02:52:00,VALID,917.375,VALID,0,VALID,97.4011,VALID,-0.0169808,VALID,19.4327,VALID,273,VALID,0.552326,
2005-05-08, 02:53:00,VALID,917.379,VALID,0,VALID,97.7076,VALID,0,VALID,19.426,VALID,310,VALID,0.821646,
2005-05-08, 02:54:00,VALID,917.376,VALID,0,VALID,97.9123,VALID,-0.0169808,VALID,19.3969,VALID,258,VALID,0.403773,
2005-05-08, 02:55:00,VALID,917.372,VALID,0,VALID,97.9364,VALID,0,VALID,19.3741,VALID,325,VALID,1.03853,
2005-05-08, 02:56:00,VALID,917.362,VALID,0,VALID,98.07,VALID,-0.0169808,VALID,19.3642,VALID,323,VALID,0.866642,
2005-05-08, 02:57:00,VALID,917.359,VALID,0,VALID,98.3294,VALID,0,VALID,19.3778,VALID,339,VALID,0.528525,
2005-05-08, 02:58:00,VALID,917.356,VALID,0,VALID,98.3167,VALID,-0.0169808,VALID,19.3612,VALID,325,VALID,0.464658,
2005-05-08, 02:59:00,VALID,917.349,VALID,0,VALID,98.5672,VALID,-0.0339617,VALID,19.348,VALID,315,VALID,0.131722,
2005-05-08, 03:00:00,VALID,917.343,VALID,0,VALID,98.7973,VALID,-0.0169808,VALID,19.3448,VALID,315,VALID,0.0976563,
2005-05-08, 03:01:00,VALID,917.332,VALID,0,VALID,98.9181,VALID,0,VALID,19.3351,VALID,325,VALID,0.701349,
2005-05-08, 03:02:00,VALID,917.327,VALID,0,VALID,98.9906,VALID,0,VALID,19.3093,VALID,353,VALID,0.978338,
2005-05-08, 03:03:00,VALID,917.317,VALID,0,VALID,99.1038,VALID,0.0169808,VALID,19.3222,VALID,301,VALID,0.596475,
2005-05-08, 03:04:00,VALID,917.303,VALID,0,VALID,98.9499,VALID,0,VALID,19.3289,VALID,305,VALID,0.482329,
2005-05-08, 03:05:00,VALID,917.292,VALID,0,VALID,98.969,VALID,0,VALID,19.3026,VALID,305,VALID,0.316939,
2005-05-08, 03:06:00,VALID,917.293,VALID,0,VALID,99.0847,VALID,0,VALID,19.2901,VALID,302,VALID,0.403888,
2005-05-08, 03:07:00,VALID,917.284,VALID,0,VALID,99.175,VALID,0.0169808,VALID,19.2673,VALID,300,VALID,0.531436,
2005-05-08, 03:08:00,VALID,917.269,VALID,0,VALID,99.0427,VALID,0.0169808,VALID,19.2578,VALID,300,VALID,0.252096,
2005-05-08, 03:09:00,VALID,917.258,VALID,0,VALID,99.0758,VALID,0.0169808,VALID,19.2546,VALID,303,VALID,0.311435,
2005-05-08, 03:10:00,VALID,917.246,VALID,0,VALID,99.2525,VALID,0.0509425,VALID,19.244,VALID,7,VALID,0.660247,
2005-05-08, 03:11:00,VALID,917.247,VALID,0,VALID,99.4026,VALID,0.0849042,VALID,19.2606,VALID,12,VALID,0.238554,
2005-05-08, 03:12:00,VALID,917.249,VALID,0,VALID,99.3174,VALID,0.0169808,VALID,19.2281,VALID,12,VALID,0.297763,
2005-05-08, 03:13:00,VALID,917.258,VALID,0,VALID,99.3772,VALID,0,VALID,19.2253,VALID,12,VALID,0.216077,
2005-05-08, 03:14:00,VALID,917.267,VALID,0,VALID,99.3721,VALID,0.0169808,VALID,19.2223,VALID,12,VALID,0.290698,
2005-05-08, 03:15:00,VALID,917.264,VALID,0,VALID,99.4395,VALID,0.0169808,VALID,19.2251,VALID,11,VALID,0.407522,
2005-05-08, 03:16:00,VALID,917.27,VALID,0,VALID,99.4789,VALID,0.0679233,VALID,19.2253,VALID,6,VALID,0.315104,
2005-05-08, 03:17:00,VALID,917.267,VALID,0,VALID,99.2309,VALID,0.0169808,VALID,19.2154,VALID,6,VALID,0.297763,
2005-05-08, 03:18:00,VALID,917.252,VALID,0,VALID,99.0987,VALID,0.0169808,VALID,19.2154,VALID,6,VALID,0.51391,
2005-05-08, 03:19:00,VALID,917.257,VALID,0,VALID,99.0758,VALID,0.0169808,VALID,19.2643,VALID,1,VALID,0.666493,
2005-05-08, 03:20:00,VALID,917.252,VALID,0,VALID,98.9334,VALID,0.0339617,VALID,19.3063,VALID,341,VALID,0.376563,
2005-05-08, 03:21:00,VALID,917.253,VALID,0,VALID,98.8215,VALID,0.0339617,VALID,19.3386,VALID,345,VALID,0.693056,
2005-05-08, 03:22:00,VALID,917.248,VALID,0,VALID,98.3014,VALID,0.0169808,VALID,19.3671,VALID,337,VALID,1.25018,
2005-05-08, 03:23:00,VALID,917.247,VALID,0,VALID,97.836,VALID,0.0509425,VALID,19.4446,VALID,8,VALID,0.919141,
2005-05-08, 03:24:00,VALID,917.247,VALID,0,VALID,97.3986,VALID,0.0169808,VALID,19.4998,VALID,351,VALID,1.0642,
2005-05-08, 03:25:00,VALID,917.237,VALID,0,VALID,96.9103,VALID,0.0849042,VALID,19.5413,VALID,346,VALID,0.859189,
2005-05-08, 03:26:00,VALID,917.242,VALID,0,VALID,96.633,VALID,0.0509425,VALID,19.5773,VALID,350,VALID,0.844494,
2005-05-08, 03:27:00,VALID,917.24,VALID,0,VALID,96.5974,VALID,0.0509425,VALID,19.6165,VALID,8,VALID,0.947493,
2005-05-08, 03:28:00,VALID,917.219,VALID,0,VALID,96.4131,VALID,0.0849042,VALID,19.625,VALID,356,VALID,0.774148,
2005-05-08, 03:29:00,VALID,917.214,VALID,0,VALID,96.3711,VALID,0.0169808,VALID,19.6543,VALID,357,VALID,0.644886,
2005-05-08, 03:30:00,VALID,917.19,VALID,0,VALID,96.2948,VALID,0.0679233,VALID,19.6963,VALID,13,VALID,0.904576,
2005-05-08, 03:31:00,VALID,917.18,VALID,0,VALID,96.2986,VALID,0,VALID,19.7253,VALID,13,VALID,1.3294,
2005-05-08, 03:32:00,VALID,917.173,VALID,0,VALID,95.9337,VALID,0.0509425,VALID,19.7447,VALID,9,VALID,1.34208,
2005-05-08, 03:33:00,VALID,917.169,VALID,0,VALID,95.837,VALID,0.0339617,VALID,19.7812,VALID,10,VALID,1.06286,
2005-05-08, 03:34:00,VALID,917.159,VALID,0,VALID,95.7264,VALID,0,VALID,19.8031,VALID,10,VALID,1.08708,